White Plains, CT

2:07 PM EDT on June 22, 2017 (GMT -0400)
Westchester County

Weather History for KHPN - September, 2012

Change the Weather History Date:

Monday, September 3, 2012

  Actual Average Record
Temperature  
Mean Temperature 70 °F -  
Max Temperature 73 °F 75 °F 93 °F (1993)
Min Temperature 66 °F 59 °F 50 °F (1976)
Cooling Degree Days 4    
Growing Degree Days 20 (Base 50)    
Moisture  
Dew Point 63 °F    
Average Humidity 80    
Maximum Humidity 94    
Minimum Humidity 63    
Precipitation  
Precipitation 0.00 in - - ()
Sea Level Pressure  
Sea Level Pressure 30.13 in    
Wind  
Wind Speed 6 mph (East)    
Max Wind Speed 10 mph    
Max Gust Speed 16 mph    
Visibility 9 miles    
Events Rain    
Averages and records for this station are not official NWS values.
T = Trace of Precipitation, MM = Missing Value Source: NWS Daily Summary

Daily Weather History Graph

Daily Weather History Graph

Search for Another Location

Airport or City:

Trip Planner

Search our weather history database for the weather conditions in past years. The results will help you decide how hot, cold, wet, or windy it might be!

Date:

Astronomy

Sep. 03, 2012 Rise Set
Actual Time 6:23 AM EDT 7:23 PM EDT
Civil Twilight 5:55 AM EDT 7:51 PM EDT
Nautical Twilight 5:22 AM EDT 8:24 PM EDT
Astronomical Twilight 4:47 AM EDT 8:59 PM EDT
Moon 8:38 PM EDT (9/3) 9:31 AM EDT (9/3)
Length of Visible Light 13h 55m
Length of Day
12h 59m
Waning Gibbous, 90% of the Moon is Illuminated
Sep 3
Waning Gibbous
Sep 8
Last Quarter
Sep 15
New
Sep 22
First Quarter
Sep 29
Full

Hourly Weather History & Observations

Time (EDT) Temp. Dew Point Humidity Pressure Visibility Wind Dir Wind Speed Gust Speed Precip Events Conditions
12:56 AM 71.1 °F 68.0 °F 90% 30.09 in 7.0 mi ENE 4.6 mph - N/A   Overcast
1:32 AM 69.8 °F 68.0 °F 94% 30.10 in 6.0 mi East 4.6 mph - N/A   Mostly Cloudy
1:56 AM 70.0 °F 68.0 °F 93% 30.09 in 6.0 mi East 3.5 mph - N/A   Mostly Cloudy
2:56 AM 70.0 °F 66.9 °F 90% 30.09 in 7.0 mi East 6.9 mph - N/A   Overcast
3:56 AM 68.0 °F 66.0 °F 93% 30.09 in 9.0 mi East 4.6 mph - N/A   Overcast
4:56 AM 68.0 °F 66.0 °F 93% 30.11 in 10.0 mi East 6.9 mph - N/A   Mostly Cloudy
5:56 AM 66.9 °F 64.9 °F 93% 30.12 in 10.0 mi East 5.8 mph - N/A   Mostly Cloudy
6:56 AM 66.9 °F 64.0 °F 90% 30.13 in 10.0 mi East 8.1 mph - N/A   Overcast
7:56 AM 66.0 °F 63.0 °F 90% 30.15 in 10.0 mi East 6.9 mph - N/A   Overcast
8:56 AM 68.0 °F 63.0 °F 84% 30.16 in 10.0 mi East 5.8 mph - N/A   Overcast
9:56 AM 69.1 °F 63.0 °F 81% 30.17 in 10.0 mi East 8.1 mph - N/A   Overcast
10:56 AM 69.1 °F 63.0 °F 81% 30.17 in 10.0 mi East 10.4 mph - N/A   Overcast
11:56 AM 70.0 °F 63.0 °F 78% 30.17 in 10.0 mi East 8.1 mph - N/A   Mostly Cloudy
12:56 PM 72.0 °F 64.0 °F 76% 30.16 in 10.0 mi Variable 6.9 mph - N/A   Mostly Cloudy
1:56 PM 73.0 °F 63.0 °F 71% 30.15 in 10.0 mi East 10.4 mph - N/A   Mostly Cloudy
2:56 PM 73.9 °F 61.0 °F 64% 30.14 in 10.0 mi ESE 10.4 mph 16.1 mph N/A   Mostly Cloudy
3:56 PM 73.0 °F 60.1 °F 64% 30.14 in 10.0 mi ESE 8.1 mph - N/A   Mostly Cloudy
4:56 PM 72.0 °F 62.1 °F 71% 30.13 in 10.0 mi East 6.9 mph - N/A   Overcast
5:56 PM 71.1 °F 62.1 °F 73% 30.13 in 10.0 mi East 9.2 mph - N/A   Overcast
6:56 PM 71.1 °F 60.1 °F 68% 30.12 in 10.0 mi East 5.8 mph - N/A   Overcast
7:56 PM 71.1 °F 57.9 °F 63% 30.11 in 10.0 mi ESE 8.1 mph - N/A   Overcast
8:56 PM 70.0 °F 57.9 °F 65% 30.10 in 10.0 mi ESE 6.9 mph - N/A   Mostly Cloudy
9:56 PM 70.0 °F 62.1 °F 76% 30.11 in 10.0 mi ESE 8.1 mph - N/A   Overcast
10:56 PM 70.0 °F 63.0 °F 78% 30.11 in 10.0 mi ESE 8.1 mph - N/A   Overcast
11:56 PM 70.0 °F 64.0 °F 81% 30.11 in 10.0 mi East 5.8 mph - 0.00 in Rain Light Rain